Simultaneous Nadir Overpasses (SNOs) Predictions

Prediction of SNOs between GOES-17 and NOAA-21 Satellite Orbit:

Table of predicted SNOs for the next 14.0 days since TLE Epoch: 2/3/2024
Index Date Time (GOES-17) GOES-17 Lat,Lon NOAA-21 Lat,Lon Distance(km) Time Diff (sec)
1 02/04/2024 08:25:08 0.02,-104.70 0.09,-105.05 39.73 80
2 02/05/2024 08:03:43 0.02,-104.70 -0.94,-100.52 477.28 80
3 02/06/2024 20:25:37 -0.03,-104.67 -0.26,-105.81 128.50 80
4 02/07/2024 20:09:31 -0.03,-104.67 0.73,-101.26 388.55 80
5 02/09/2024 08:31:16 0.03,-104.70 0.47,-106.52 208.31 80
6 02/10/2024 08:09:50 0.03,-104.69 -0.57,-101.99 308.65 80
7 02/11/2024 20:34:25 -0.04,-104.67 -0.62,-107.28 297.07 80
8 02/12/2024 20:12:58 -0.03,-104.67 0.37,-102.73 220.27 80
9 02/14/2024 08:37:25 0.04,-104.70 0.76,-108.00 375.80 80
10 02/15/2024 08:15:58 0.03,-104.70 -0.23,-103.46 141.38 80
11 02/16/2024 20:40:32 -0.04,-104.68 -0.94,-108.75 464.40 80
